Time,TemperatureF,DewpointF,PressureIn,WindDirection,WindDirectionDegrees,WindSpeedMPH,WindSpeedGustMPH,Humidity,HourlyPrecipIn,Conditions,Clouds,dailyrainin,SoftwareType,DateUTC
2013-05-19 00:01:00,31.1,15.1,29.77,NNW,338,0.0,0.0,51,0.00,CLR,SCT,0.00,WeatherDisplay:10.37,2013-05-19 08:01:00,
2013-05-19 00:06:00,31.3,15.2,29.77,NNW,338,0.0,0.0,51,0.00,CLR,SCT,0.00,WeatherDisplay:10.37,2013-05-19 08:06:00,
2013-05-19 00:11:00,31.6,15.6,29.77,NNW,338,0.0,0.0,51,0.00,CLR,SCT,0.00,WeatherDisplay:10.37,2013-05-19 08:11:00,
2013-05-19 00:16:00,31.8,15.3,29.77,NNW,338,0.0,0.0,50,0.00,CLR,SCT,0.00,WeatherDisplay:10.37,2013-05-19 08:16:00,
2013-05-19 00:21:00,31.8,15.3,29.77,NNW,338,0.0,0.0,50,0.00,CLR,SCT,0.00,WeatherDisplay:10.37,2013-05-19 08:21:00,
2013-05-19 00:26:00,32.2,15.6,29.77,NNW,338,0.0,0.0,50,0.00,CLR,SCT,0.00,WeatherDisplay:10.37,2013-05-19 08:26:00,
2013-05-19 00:32:00,32.0,15.0,29.77,NNW,338,0.0,0.0,49,0.00,CLR,SCT,0.00,WeatherDisplay:10.37,2013-05-19 08:32:00,
2013-05-19 00:37:00,32.2,15.1,29.77,NNW,338,0.0,0.0,49,0.00,CLR,SCT,0.00,WeatherDisplay:10.37,2013-05-19 08:37:00,
2013-05-19 00:42:00,32.2,15.1,29.77,NNW,338,0.0,0.0,49,0.00,CLR,SCT,0.00,WeatherDisplay:10.37,2013-05-19 08:42:00,
2013-05-19 00:47:00,32.2,15.1,29.77,NNW,338,0.0,0.0,49,0.00,CLR,SCT,0.00,WeatherDisplay:10.37,2013-05-19 08:47:00,
2013-05-19 00:52:00,32.0,14.5,29.80,NNW,338,0.0,0.0,48,0.00,CLR,SCT,0.00,WeatherDisplay:10.37,2013-05-19 08:52:00,
2013-05-19 00:57:00,32.0,14.5,29.80,NNW,338,0.0,0.0,48,0.00,CLR,SCT,0.00,WeatherDisplay:10.37,2013-05-19 08:57:00,
2013-05-19 01:02:00,32.2,14.7,29.80,NNW,338,0.0,0.0,48,0.00,CLR,SCT,0.00,WeatherDisplay:10.37,2013-05-19 09:02:00,
2013-05-19 01:07:00,31.8,13.9,29.80,NNW,338,0.0,0.0,47,0.00,CLR,SCT,0.00,WeatherDisplay:10.37,2013-05-19 09:07:00,
2013-05-19 01:12:00,31.6,14.2,29.80,NNW,338,0.0,0.0,48,0.00,CLR,SCT,0.00,WeatherDisplay:10.37,2013-05-19 09:12:00,
2013-05-19 01:17:00,31.6,14.2,29.80,NNW,338,0.0,0.0,48,0.00,CLR,SCT,0.00,WeatherDisplay:10.37,2013-05-19 09:17:00,
2013-05-19 01:22:00,31.6,13.7,29.80,NNW,338,0.0,0.0,47,0.00,CLR,SCT,0.00,WeatherDisplay:10.37,2013-05-19 09:22:00,
2013-05-19 01:27:00,31.8,13.9,29.80,NNW,338,0.0,0.0,47,0.00,CLR,SCT,0.00,WeatherDisplay:10.37,2013-05-19 09:27:00,
2013-05-19 01:32:00,31.8,13.4,29.80,NNW,338,0.0,0.0,46,0.00,CLR,SCT,0.00,WeatherDisplay:10.37,2013-05-19 09:32:00,
2013-05-19 01:37:00,31.5,12.5,29.80,ENE,68,4.6,4.6,45,0.00,CLR,SCT,0.00,WeatherDisplay:10.37,2013-05-19 09:37:00,
2013-05-19 01:42:00,31.5,13.0,29.80,ENE,68,0.0,0.0,46,0.00,CLR,SCT,0.00,WeatherDisplay:10.37,2013-05-19 09:42:00,
2013-05-19 01:47:00,31.3,12.4,29.80,ENE,68,0.0,0.0,45,0.00,CLR,SCT,0.00,WeatherDisplay:10.37,2013-05-19 09:47:00,
2013-05-19 01:52:00,31.1,12.7,29.83,ENE,68,0.0,0.0,46,0.00,CLR,SCT,0.00,WeatherDisplay:10.37,2013-05-19 09:52:00,
2013-05-19 01:57:00,30.9,12.5,29.83,ENE,68,0.0,0.0,46,0.00,CLR,SCT,0.00,WeatherDisplay:10.37,2013-05-19 09:57:00,
2013-05-19 02:02:00,30.9,12.5,29.83,ENE,68,0.0,0.0,46,0.00,CLR,SCT,0.00,WeatherDisplay:10.37,2013-05-19 10:02:00,
2013-05-19 02:07:00,30.9,12.5,29.80,ENE,68,2.3,0.0,46,0.00,CLR,SCT,0.00,WeatherDisplay:10.37,2013-05-19 10:07:00,
2013-05-19 02:12:00,30.9,12.0,29.80,ENE,68,0.0,0.0,45,0.00,CLR,SCT,0.00,WeatherDisplay:10.37,2013-05-19 10:12:00,
2013-05-19 02:17:00,30.6,12.2,29.80,ENE,68,4.6,0.0,46,0.00,CLR,SCT,0.00,WeatherDisplay:10.37,2013-05-19 10:17:00,
2013-05-19 02:22:00,30.4,12.0,29.83,ENE,68,0.0,0.0,46,0.00,CLR,SCT,0.00,WeatherDisplay:10.37,2013-05-19 10:22:00,
2013-05-19 02:27:00,30.2,12.4,29.83,ENE,68,0.0,0.0,47,0.00,CLR,SCT,0.00,WeatherDisplay:10.37,2013-05-19 10:27:00,
2013-05-19 02:32:00,30.2,12.8,29.83,ENE,68,0.0,0.0,48,0.00,CLR,SCT,0.00,WeatherDisplay:10.37,2013-05-19 10:32:00,
2013-05-19 02:37:00,30.2,12.8,29.83,ENE,68,0.0,0.0,48,0.00,CLR,SCT,0.00,WeatherDisplay:10.37,2013-05-19 10:37:00,
2013-05-19 02:42:00,30.0,12.7,29.83,ENE,68,0.0,0.0,48,0.00,CLR,SCT,0.00,WeatherDisplay:10.37,2013-05-19 10:42:00,
2013-05-19 02:47:00,29.8,13.0,29.83,ENE,68,0.0,0.0,49,0.00,CLR,SCT,0.00,WeatherDisplay:10.37,2013-05-19 10:47:00,
2013-05-19 02:52:00,29.7,13.3,29.83,ENE,68,0.0,0.0,50,0.00,CLR,SCT,0.00,WeatherDisplay:10.37,2013-05-19 10:52:00,
2013-05-19 02:57:00,29.3,13.4,29.83,ENE,68,0.0,0.0,51,0.00,CLR,SCT,0.00,WeatherDisplay:10.37,2013-05-19 10:57:00,
2013-05-19 03:02:00,29.1,13.7,29.83,ENE,68,3.5,3.5,52,0.00,CLR,SCT,0.00,WeatherDisplay:10.37,2013-05-19 11:02:00,
2013-05-19 03:07:00,28.9,13.9,29.83,East,90,0.0,0.0,53,0.00,CLR,SCT,0.00,WeatherDisplay:10.37,2013-05-19 11:07:00,
2013-05-19 03:12:00,28.8,13.8,29.83,East,90,2.6,0.0,53,0.00,CLR,SCT,0.00,WeatherDisplay:10.37,2013-05-19 11:12:00,
2013-05-19 03:17:00,28.6,14.0,29.83,East,90,0.0,0.0,54,0.00,CLR,SCT,0.00,WeatherDisplay:10.37,2013-05-19 11:17:00,
2013-05-19 03:22:00,28.6,14.0,29.83,East,90,0.0,0.0,54,0.00,CLR,SCT,0.00,WeatherDisplay:10.37,2013-05-19 11:22:00,
2013-05-19 03:27:00,28.6,14.4,29.83,East,90,0.0,0.0,55,0.00,CLR,SCT,0.00,WeatherDisplay:10.37,2013-05-19 11:27:00,
2013-05-19 03:32:00,28.4,14.7,29.83,East,90,0.0,0.0,56,0.00,CLR,SCT,0.00,WeatherDisplay:10.37,2013-05-19 11:32:00,
2013-05-19 03:37:00,28.4,14.7,29.85,East,90,3.5,0.0,56,0.00,CLR,SCT,0.00,WeatherDisplay:10.37,2013-05-19 11:37:00,
2013-05-19 03:42:00,28.4,14.7,29.85,East,90,3.5,3.5,56,0.00,CLR,SCT,0.00,WeatherDisplay:10.37,2013-05-19 11:42:00,
2013-05-19 03:47:00,28.4,14.7,29.85,SE,135,4.6,4.6,56,0.00,CLR,SCT,0.00,WeatherDisplay:10.37,2013-05-19 11:47:00,
2013-05-19 03:52:00,28.4,14.3,29.85,SE,135,2.6,2.6,55,0.00,CLR,SCT,0.00,WeatherDisplay:10.37,2013-05-19 11:52:00,
2013-05-19 03:57:00,28.4,14.3,29.85,SE,135,2.6,0.0,55,0.00,CLR,SCT,0.00,WeatherDisplay:10.37,2013-05-19 11:57:00,
2013-05-19 04:02:00,28.2,14.1,29.85,SE,135,2.6,2.6,55,0.00,CLR,SCT,0.00,WeatherDisplay:10.37,2013-05-19 12:02:00,
2013-05-19 04:07:00,28.0,13.9,29.85,SE,135,0.0,0.0,55,0.00,CLR,SCT,0.00,WeatherDisplay:10.37,2013-05-19 12:07:00,
2013-05-19 04:12:00,27.9,13.8,29.85,SE,135,0.0,0.0,55,0.00,CLR,SCT,0.00,WeatherDisplay:10.37,2013-05-19 12:12:00,
2013-05-19 04:17:00,27.9,14.2,29.85,SE,135,2.3,0.0,56,0.00,CLR,SCT,0.00,WeatherDisplay:10.37,2013-05-19 12:17:00,
2013-05-19 04:22:00,28.2,14.1,29.85,SE,135,2.6,2.6,55,0.00,CLR,SCT,0.00,WeatherDisplay:10.37,2013-05-19 12:22:00,
2013-05-19 04:27:00,27.9,13.8,29.85,ENE,68,3.1,3.1,55,0.00,CLR,SCT,0.00,WeatherDisplay:10.37,2013-05-19 12:27:00,
2013-05-19 04:32:00,27.5,13.4,29.85,ENE,68,0.0,0.0,55,0.00,CLR,SCT,0.00,WeatherDisplay:10.37,2013-05-19 12:32:00,
2013-05-19 04:37:00,27.7,13.6,29.85,SE,135,3.5,3.5,55,0.00,CLR,SCT,0.00,WeatherDisplay:10.37,2013-05-19 12:37:00,
2013-05-19 04:42:00,28.8,13.3,29.85,SE,135,5.9,5.9,52,0.00,CLR,SCT,0.00,WeatherDisplay:10.37,2013-05-19 12:42:00,
2013-05-19 04:47:00,28.2,12.8,29.85,East,90,0.0,0.0,52,0.00,CLR,SCT,0.00,WeatherDisplay:10.37,2013-05-19 12:47:00,
2013-05-19 04:52:00,27.7,12.8,29.88,East,90,0.0,0.0,53,0.00,CLR,SCT,0.00,WeatherDisplay:10.37,2013-05-19 12:52:00,
2013-05-19 04:57:00,27.5,13.0,29.88,East,90,0.0,0.0,54,0.00,CLR,SCT,0.00,WeatherDisplay:10.37,2013-05-19 12:57:00,
2013-05-19 05:02:00,27.1,13.1,29.88,East,90,0.0,0.0,55,0.00,CLR,SCT,0.00,WeatherDisplay:10.37,2013-05-19 13:02:00,
2013-05-19 05:07:00,27.0,12.9,29.88,East,90,0.0,0.0,55,0.00,CLR,SCT,0.00,WeatherDisplay:10.37,2013-05-19 13:07:00,
2013-05-19 05:12:00,27.3,13.3,29.88,East,90,2.3,0.0,55,0.00,CLR,SCT,0.00,WeatherDisplay:10.37,2013-05-19 13:12:00,
2013-05-19 05:17:00,27.1,13.5,29.88,East,90,0.0,0.0,56,0.00,CLR,SCT,0.00,WeatherDisplay:10.37,2013-05-19 13:17:00,
2013-05-19 05:22:00,27.3,13.7,29.88,SE,135,0.0,0.0,56,0.00,CLR,SCT,0.00,WeatherDisplay:10.37,2013-05-19 13:22:00,
2013-05-19 05:27:00,27.5,13.4,29.88,SE,135,0.0,0.0,55,0.00,CLR,SCT,0.00,WeatherDisplay:10.37,2013-05-19 13:27:00,
2013-05-19 05:32:00,27.5,13.0,29.88,SE,135,0.0,0.0,54,0.00,CLR,SCT,0.00,WeatherDisplay:10.37,2013-05-19 13:32:00,
2013-05-19 05:37:00,27.7,13.2,29.88,SE,135,2.6,0.0,54,0.00,CLR,SCT,0.00,WeatherDisplay:10.37,2013-05-19 13:37:00,
2013-05-19 05:42:00,27.9,12.9,29.88,SE,135,2.3,0.0,53,0.00,CLR,SCT,0.00,WeatherDisplay:10.37,2013-05-19 13:42:00,
2013-05-19 05:47:00,27.9,12.9,29.88,SE,135,3.5,3.5,53,0.00,CLR,SCT,0.00,WeatherDisplay:10.37,2013-05-19 13:47:00,
2013-05-19 05:52:00,28.0,12.7,29.88,SE,135,3.1,3.1,52,0.00,CLR,SCT,0.00,WeatherDisplay:10.37,2013-05-19 13:52:00,
2013-05-19 05:57:00,27.9,12.5,29.88,SE,135,2.3,0.0,52,0.00,CLR,SCT,0.00,WeatherDisplay:10.37,2013-05-19 13:57:00,
2013-05-19 06:02:00,28.4,13.0,29.88,SE,135,2.3,0.0,52,0.00,CLR,SCT,0.00,WeatherDisplay:10.37,2013-05-19 14:02:00,
2013-05-19 06:07:00,28.2,12.8,29.91,SE,135,2.6,0.0,52,0.00,CLR,SCT,0.00,WeatherDisplay:10.37,2013-05-19 14:07:00,
2013-05-19 06:12:00,28.0,13.1,29.91,SE,135,2.3,2.3,53,0.00,CLR,SCT,0.00,WeatherDisplay:10.37,2013-05-19 14:12:00,
2013-05-19 06:17:00,27.9,13.3,29.91,SE,135,2.6,0.0,54,0.00,CLR,SCT,0.00,WeatherDisplay:10.37,2013-05-19 14:17:00,
2013-05-19 06:22:00,27.7,14.0,29.91,SE,135,2.3,2.3,56,0.00,CLR,SCT,0.00,WeatherDisplay:10.37,2013-05-19 14:22:00,
2013-05-19 06:27:00,27.9,15.0,29.91,SE,135,2.3,0.0,58,0.00,CLR,SCT,0.00,WeatherDisplay:10.37,2013-05-19 14:27:00,
2013-05-19 06:32:00,28.4,15.5,29.91,SSE,158,2.3,0.0,58,0.00,CLR,SCT,0.00,WeatherDisplay:10.37,2013-05-19 14:32:00,
2013-05-19 06:37:00,29.1,14.9,29.91,SSE,158,0.0,0.0,55,0.00,CLR,SCT,0.00,WeatherDisplay:10.37,2013-05-19 14:37:00,
2013-05-19 06:42:00,29.7,15.5,29.91,SSE,158,0.0,0.0,55,0.00,CLR,SCT,0.00,WeatherDisplay:10.37,2013-05-19 14:42:00,
2013-05-19 06:47:00,30.2,15.5,29.91,SE,135,2.6,0.0,54,0.00,CLR,SCT,0.00,WeatherDisplay:10.37,2013-05-19 14:47:00,
2013-05-19 06:52:00,30.7,15.2,29.91,SE,135,0.0,0.0,52,0.00,CLR,SCT,0.00,WeatherDisplay:10.37,2013-05-19 14:52:00,
2013-05-19 06:57:00,31.1,15.1,29.91,SE,135,0.0,0.0,51,0.00,CLR,SCT,0.00,WeatherDisplay:10.37,2013-05-19 14:57:00,
2013-05-19 07:02:00,31.6,15.6,29.91,SE,135,4.0,4.0,51,0.00,CLR,SCT,0.00,WeatherDisplay:10.37,2013-05-19 15:02:00,
2013-05-19 07:07:00,32.4,15.3,29.91,SE,135,5.4,5.4,49,0.00,CLR,SCT,0.00,WeatherDisplay:10.37,2013-05-19 15:07:00,
2013-05-19 07:12:00,32.7,14.7,29.91,SE,135,4.6,4.6,47,0.00,CLR,SCT,0.00,WeatherDisplay:10.37,2013-05-19 15:12:00,
2013-05-19 07:17:00,33.3,14.7,29.91,SE,135,4.0,4.0,46,0.00,CLR,SCT,0.00,WeatherDisplay:10.37,2013-05-19 15:17:00,
2013-05-19 07:22:00,33.4,14.8,29.91,SE,135,4.0,4.0,46,0.00,CLR,SCT,0.00,WeatherDisplay:10.37,2013-05-19 15:22:00,
2013-05-19 07:28:00,33.8,14.7,29.91,SE,135,3.5,3.5,45,0.00,CLR,SCT,0.00,WeatherDisplay:10.37,2013-05-19 15:28:00,
2013-05-19 07:33:00,34.0,14.8,29.91,ESE,112,5.9,5.9,45,0.00,CLR,SCT,0.00,WeatherDisplay:10.37,2013-05-19 15:33:00,
2013-05-19 07:38:00,34.3,14.7,29.94,SSE,158,5.8,5.8,44,0.00,CLR,SCT,0.00,WeatherDisplay:10.37,2013-05-19 15:38:00,
2013-05-19 07:43:00,34.2,14.0,29.94,SE,135,5.8,5.8,43,0.00,CLR,SCT,0.00,WeatherDisplay:10.37,2013-05-19 15:43:00,
2013-05-19 07:48:00,35.1,15.3,29.94,SSE,158,2.3,0.0,44,0.00,CLR,SCT,0.00,WeatherDisplay:10.37,2013-05-19 15:48:00,
2013-05-19 07:53:00,35.4,15.6,29.94,SE,135,3.6,3.6,44,0.00,CLR,SCT,0.00,WeatherDisplay:10.37,2013-05-19 15:53:00,
2013-05-19 07:58:00,35.6,15.3,29.94,NE,45,3.5,3.5,43,0.00,CLR,SCT,0.00,WeatherDisplay:10.37,2013-05-19 15:58:00,
2013-05-19 08:03:00,34.9,14.6,29.94,SE,135,4.6,4.6,43,0.00,CLR,SCT,0.00,WeatherDisplay:10.37,2013-05-19 16:03:00,
2013-05-19 08:08:00,35.2,14.9,29.94,ENE,68,3.6,0.0,43,0.00,CLR,SCT,0.00,WeatherDisplay:10.37,2013-05-19 16:08:00,
2013-05-19 08:13:00,35.8,14.9,29.94,NE,45,3.5,0.0,42,0.00,CLR,SCT,0.00,WeatherDisplay:10.37,2013-05-19 16:13:00,
2013-05-19 08:18:00,35.6,14.7,29.94,ENE,68,3.5,3.5,42,0.00,CLR,SCT,0.00,WeatherDisplay:10.37,2013-05-19 16:18:00,
2013-05-19 08:23:00,35.8,14.3,29.94,ENE,68,3.5,3.5,41,0.00,CLR,SCT,0.00,WeatherDisplay:10.37,2013-05-19 16:23:00,
2013-05-19 08:28:00,36.0,15.1,29.94,ESE,112,2.3,0.0,42,0.00,CLR,SCT,0.00,WeatherDisplay:10.37,2013-05-19 16:28:00,
2013-05-19 08:33:00,36.1,15.2,29.94,NE,45,3.5,3.6,42,0.00,CLR,SCT,0.00,WeatherDisplay:10.37,2013-05-19 16:33:00,
2013-05-19 08:38:00,36.5,15.6,29.97,NE,45,4.6,4.6,42,0.00,CLR,SCT,0.00,WeatherDisplay:10.37,2013-05-19 16:38:00,
2013-05-19 08:43:00,36.7,15.2,29.97,East,90,4.6,4.6,41,0.00,CLR,SCT,0.00,WeatherDisplay:10.37,2013-05-19 16:43:00,
2013-05-19 08:48:00,36.9,15.3,29.97,SE,135,4.6,4.6,41,0.00,CLR,SCT,0.00,WeatherDisplay:10.37,2013-05-19 16:48:00,
2013-05-19 08:53:00,37.2,15.1,29.97,ENE,68,4.6,4.6,40,0.00,CLR,SCT,0.00,WeatherDisplay:10.37,2013-05-19 16:53:00,
2013-05-19 08:58:00,37.4,15.2,29.97,SSE,158,4.0,4.0,40,0.00,CLR,SCT,0.00,WeatherDisplay:10.37,2013-05-19 16:58:00,
2013-05-19 09:03:00,37.4,15.2,29.97,SE,135,3.5,3.5,40,0.00,CLR,SCT,0.00,WeatherDisplay:10.37,2013-05-19 17:03:00,
2013-05-19 09:08:00,37.9,15.7,29.97,SE,135,4.6,4.6,40,0.00,CLR,SCT,0.00,WeatherDisplay:10.37,2013-05-19 17:08:00,
2013-05-19 09:13:00,37.9,15.7,29.97,SE,135,5.8,5.8,40,0.00,CLR,SCT,0.00,WeatherDisplay:10.37,2013-05-19 17:13:00,
2013-05-19 09:18:00,38.3,15.5,29.97,NE,45,6.9,6.9,39,0.00,CLR,SCT,0.00,WeatherDisplay:10.37,2013-05-19 17:18:00,
2013-05-19 09:23:00,38.7,15.8,29.97,NE,45,4.9,4.9,39,0.00,CLR,SCT,0.00,WeatherDisplay:10.37,2013-05-19 17:23:00,
2013-05-19 09:28:00,38.5,15.6,29.97,NNE,22,8.1,8.1,39,0.00,CLR,SCT,0.00,WeatherDisplay:10.37,2013-05-19 17:28:00,
2013-05-19 09:33:00,38.5,15.6,29.97,ENE,68,5.8,5.8,39,0.00,CLR,SCT,0.00,WeatherDisplay:10.37,2013-05-19 17:33:00,
2013-05-19 09:38:00,38.7,15.8,30.00,NNW,338,3.5,3.5,39,0.00,CLR,SCT,0.00,WeatherDisplay:10.37,2013-05-19 17:38:00,
2013-05-19 09:43:00,40.1,17.1,30.00,East,90,4.6,4.6,39,0.00,CLR,SCT,0.00,WeatherDisplay:10.37,2013-05-19 17:43:00,
2013-05-19 09:48:00,39.9,16.3,30.00,NE,45,5.8,5.8,38,0.00,CLR,SCT,0.00,WeatherDisplay:10.37,2013-05-19 17:48:00,
2013-05-19 09:53:00,40.6,17.6,30.00,SSE,158,5.8,5.8,39,0.00,CLR,SCT,0.00,WeatherDisplay:10.37,2013-05-19 17:53:00,
2013-05-19 09:58:00,41.4,17.6,30.00,NE,45,8.3,8.3,38,0.00,CLR,SCT,0.00,WeatherDisplay:10.37,2013-05-19 17:58:00,
2013-05-19 10:03:00,41.7,17.9,30.00,ENE,68,9.2,9.2,38,0.00,CLR,SCT,0.00,WeatherDisplay:10.37,2013-05-19 18:03:00,
2013-05-19 10:08:00,41.4,16.4,30.00,North,0,6.9,6.9,36,0.00,CLR,SCT,0.00,WeatherDisplay:10.37,2013-05-19 18:08:00,
2013-05-19 10:13:00,42.6,18.1,30.00,ENE,68,5.9,0.0,37,0.00,CLR,SCT,0.00,WeatherDisplay:10.37,2013-05-19 18:13:00,
2013-05-19 10:18:00,43.5,18.3,30.00,ENE,68,5.9,5.9,36,0.00,CLR,SCT,0.00,WeatherDisplay:10.37,2013-05-19 18:18:00,
2013-05-19 10:23:00,42.4,17.3,30.00,ENE,68,5.8,5.8,36,0.00,CLR,SCT,0.00,WeatherDisplay:10.37,2013-05-19 18:23:00,
2013-05-19 10:28:00,43.5,18.3,30.00,ENE,68,8.1,8.1,36,0.00,CLR,SCT,0.00,WeatherDisplay:10.37,2013-05-19 18:28:00,
2013-05-19 10:33:00,44.1,18.1,30.00,NNE,22,3.6,3.6,35,0.00,CLR,SCT,0.00,WeatherDisplay:10.37,2013-05-19 18:33:00,
2013-05-19 10:38:00,44.8,18.8,30.03,ENE,68,4.6,4.6,35,0.00,CLR,SCT,0.00,WeatherDisplay:10.37,2013-05-19 18:38:00,
2013-05-19 10:43:00,44.1,17.4,30.03,East,90,5.8,5.8,34,0.00,CLR,SCT,0.00,WeatherDisplay:10.37,2013-05-19 18:43:00,
2013-05-19 10:48:00,43.5,17.0,30.03,NNE,22,8.1,8.1,34,0.00,CLR,SCT,0.00,WeatherDisplay:10.37,2013-05-19 18:48:00,
2013-05-19 10:53:00,44.1,16.8,30.00,ENE,68,5.8,5.8,33,0.00,CLR,SCT,0.00,WeatherDisplay:10.37,2013-05-19 18:53:00,
2013-05-19 10:58:00,44.6,17.2,30.00,NNW,338,4.6,0.0,33,0.00,CLR,SCT,0.00,WeatherDisplay:10.37,2013-05-19 18:58:00,
2013-05-19 11:03:00,44.6,17.9,30.00,North,0,3.5,3.5,34,0.00,CLR,SCT,0.00,WeatherDisplay:10.37,2013-05-19 19:03:00,
2013-05-19 11:08:00,44.6,17.2,30.03,East,90,4.6,4.6,33,0.00,CLR,SCT,0.00,WeatherDisplay:10.37,2013-05-19 19:08:00,
2013-05-19 11:13:00,44.4,17.1,30.03,ENE,68,5.8,5.8,33,0.00,CLR,SCT,0.00,WeatherDisplay:10.37,2013-05-19 19:13:00,
2013-05-19 11:18:00,45.1,17.7,30.03,North,0,4.6,4.6,33,0.00,CLR,SCT,0.00,WeatherDisplay:10.37,2013-05-19 19:18:00,
2013-05-19 11:23:00,45.9,18.3,30.03,NNW,338,3.6,3.6,33,0.00,CLR,SCT,0.00,WeatherDisplay:10.37,2013-05-19 19:23:00,
2013-05-19 11:28:00,45.9,18.3,30.03,NE,45,5.4,0.0,33,0.00,CLR,SCT,0.00,WeatherDisplay:10.37,2013-05-19 19:28:00,
2013-05-19 11:33:00,44.6,16.5,30.03,NE,45,6.9,6.9,32,0.00,CLR,SCT,0.00,WeatherDisplay:10.37,2013-05-19 19:33:00,
2013-05-19 11:38:00,44.1,16.0,30.03,ESE,112,5.8,0.0,32,0.00,CLR,SCT,0.00,WeatherDisplay:10.37,2013-05-19 19:38:00,
2013-05-19 11:43:00,46.2,17.9,30.03,NNW,338,4.6,4.6,32,0.00,CLR,SCT,0.00,WeatherDisplay:10.37,2013-05-19 19:43:00,
2013-05-19 11:48:00,46.8,17.7,30.03,NNE,22,2.3,0.0,31,0.00,CLR,SCT,0.00,WeatherDisplay:10.37,2013-05-19 19:48:00,
2013-05-19 11:53:00,47.1,18.0,30.03,North,0,3.5,0.0,31,0.00,CLR,SCT,0.00,WeatherDisplay:10.37,2013-05-19 19:53:00,
2013-05-19 11:58:00,47.8,18.6,30.03,ENE,68,3.5,3.5,31,0.00,CLR,SCT,0.00,WeatherDisplay:10.37,2013-05-19 19:58:00,
2013-05-19 12:03:00,47.7,18.5,30.03,WNW,292,4.0,4.0,31,0.00,CLR,SCT,0.00,WeatherDisplay:10.37,2013-05-19 20:03:00,
2013-05-19 12:08:00,45.7,16.7,30.03,NNW,338,6.9,6.9,31,0.00,CLR,SCT,0.00,WeatherDisplay:10.37,2013-05-19 20:08:00,
2013-05-19 12:13:00,44.2,16.9,30.03,North,0,8.1,8.1,33,0.00,CLR,SCT,0.00,WeatherDisplay:10.37,2013-05-19 20:13:00,
2013-05-19 12:18:00,44.2,17.6,30.06,NNW,338,6.9,6.9,34,0.00,CLR,SCT,0.00,WeatherDisplay:10.37,2013-05-19 20:18:00,
2013-05-19 12:23:00,44.2,18.3,30.06,North,0,8.1,8.1,35,0.00,CLR,SCT,0.00,WeatherDisplay:10.37,2013-05-19 20:23:00,
2013-05-19 12:28:00,45.7,19.6,30.06,NNE,22,5.9,5.9,35,0.00,CLR,SCT,0.00,WeatherDisplay:10.37,2013-05-19 20:28:00,
2013-05-19 12:33:00,45.5,19.4,30.06,NE,45,5.8,5.8,35,0.00,CLR,SCT,0.00,WeatherDisplay:10.37,2013-05-19 20:33:00,
2013-05-19 12:38:00,45.3,19.2,30.06,North,0,8.3,8.3,35,0.00,CLR,SCT,0.00,WeatherDisplay:10.37,2013-05-19 20:38:00,
2013-05-19 12:43:00,43.7,17.8,30.06,NW,315,10.4,10.4,35,0.00,CLR,SCT,0.00,WeatherDisplay:10.37,2013-05-19 20:43:00,
2013-05-19 12:48:00,43.0,17.8,30.06,NW,315,12.7,12.7,36,0.00,CLR,SCT,0.00,WeatherDisplay:10.37,2013-05-19 20:48:00,
2013-05-19 12:53:00,42.6,18.1,30.06,North,0,13.8,13.8,37,0.00,CLR,SCT,0.00,WeatherDisplay:10.37,2013-05-19 20:53:00,
2013-05-19 12:58:00,43.0,18.5,30.06,NNW,338,8.1,8.1,37,0.00,CLR,SCT,0.00,WeatherDisplay:10.37,2013-05-19 20:58:00,
2013-05-19 13:03:00,44.6,19.9,30.06,NNW,338,6.9,6.9,37,0.00,CLR,SCT,0.00,WeatherDisplay:10.37,2013-05-19 21:03:00,
2013-05-19 13:08:00,44.1,19.4,30.06,WNW,292,8.3,8.3,37,0.00,CLR,SCT,0.00,WeatherDisplay:10.37,2013-05-19 21:08:00,
2013-05-19 13:13:00,43.5,18.3,30.06,NNW,338,9.2,9.2,36,0.00,CLR,SCT,0.00,WeatherDisplay:10.37,2013-05-19 21:13:00,
2013-05-19 13:18:00,44.6,19.9,30.06,NNW,338,5.9,5.9,37,0.00,CLR,SCT,0.00,WeatherDisplay:10.37,2013-05-19 21:18:00,
2013-05-19 13:23:00,44.1,18.8,30.06,NNW,338,9.2,9.2,36,0.00,CLR,SCT,0.00,WeatherDisplay:10.37,2013-05-19 21:23:00,
2013-05-19 13:28:00,43.5,18.3,30.06,West,270,8.7,8.7,36,0.00,CLR,SCT,0.00,WeatherDisplay:10.37,2013-05-19 21:28:00,
2013-05-19 13:33:00,44.1,18.8,30.06,NNW,338,5.8,5.8,36,0.00,CLR,SCT,0.00,WeatherDisplay:10.37,2013-05-19 21:33:00,
2013-05-19 13:38:00,43.5,17.6,30.06,NNW,338,11.5,11.5,35,0.00,CLR,SCT,0.00,WeatherDisplay:10.37,2013-05-19 21:38:00,
2013-05-19 13:43:00,44.2,18.3,30.06,NW,315,6.9,6.9,35,0.00,CLR,SCT,0.00,WeatherDisplay:10.37,2013-05-19 21:43:00,
2013-05-19 13:48:00,44.8,18.8,30.09,NNW,338,8.1,8.1,35,0.00,CLR,SCT,0.00,WeatherDisplay:10.37,2013-05-19 21:48:00,
2013-05-19 13:53:00,44.8,17.4,30.09,NNW,338,8.1,8.1,33,0.00,CLR,SCT,0.00,WeatherDisplay:10.37,2013-05-19 21:53:00,
2013-05-19 13:58:00,44.6,17.9,30.09,NNW,338,9.2,9.2,34,0.00,CLR,SCT,0.00,WeatherDisplay:10.37,2013-05-19 21:58:00,
2013-05-19 14:03:00,45.0,18.2,30.09,NW,315,9.2,9.2,34,0.00,CLR,SCT,0.00,WeatherDisplay:10.37,2013-05-19 22:03:00,
2013-05-19 14:08:00,43.5,16.3,30.09,North,0,10.4,10.4,33,0.00,CLR,SCT,0.00,WeatherDisplay:10.37,2013-05-19 22:08:00,
2013-05-19 14:13:00,44.1,17.4,30.09,NNW,338,11.8,11.8,34,0.00,CLR,SCT,0.00,WeatherDisplay:10.37,2013-05-19 22:13:00,
2013-05-19 14:18:00,43.3,17.5,30.09,NNW,338,10.4,10.4,35,0.00,CLR,SCT,0.00,WeatherDisplay:10.37,2013-05-19 22:18:00,
2013-05-19 14:23:00,43.5,17.6,30.09,NNW,338,8.1,8.1,35,0.00,CLR,SCT,0.00,WeatherDisplay:10.37,2013-05-19 22:23:00,
2013-05-19 14:28:00,43.2,16.6,30.09,North,0,10.4,10.4,34,0.00,CLR,SCT,0.00,WeatherDisplay:10.37,2013-05-19 22:28:00,
2013-05-19 14:34:00,43.9,18.0,30.09,North,0,9.2,9.2,35,0.00,CLR,SCT,0.00,WeatherDisplay:10.37,2013-05-19 22:34:00,
2013-05-19 14:39:00,43.7,17.1,30.09,WNW,292,8.1,8.1,34,0.00,CLR,SCT,0.00,WeatherDisplay:10.37,2013-05-19 22:39:00,
2013-05-19 14:44:00,43.7,17.1,30.09,NNW,338,9.2,9.2,34,0.00,CLR,SCT,0.00,WeatherDisplay:10.37,2013-05-19 22:44:00,
2013-05-19 14:49:00,44.1,18.1,30.12,NNW,338,8.1,8.1,35,0.00,CLR,SCT,0.00,WeatherDisplay:10.37,2013-05-19 22:49:00,
2013-05-19 14:54:00,45.3,19.2,30.12,NNW,338,5.8,5.8,35,0.00,CLR,SCT,0.00,WeatherDisplay:10.37,2013-05-19 22:54:00,
2013-05-19 14:59:00,45.3,18.6,30.12,WNW,292,10.4,10.4,34,0.00,CLR,SCT,0.00,WeatherDisplay:10.37,2013-05-19 22:59:00,
2013-05-19 15:04:00,45.1,18.4,30.12,NNW,338,8.1,8.1,34,0.00,CLR,SCT,0.00,WeatherDisplay:10.37,2013-05-19 23:04:00,
2013-05-19 15:09:00,45.5,18.7,30.12,NNW,338,9.2,9.2,34,0.00,CLR,SCT,0.00,WeatherDisplay:10.37,2013-05-19 23:09:00,
2013-05-19 15:14:00,44.2,17.6,30.12,NW,315,11.5,11.5,34,0.00,CLR,SCT,0.00,WeatherDisplay:10.37,2013-05-19 23:14:00,
2013-05-19 15:19:00,44.2,17.6,30.12,NNW,338,4.6,5.4,34,0.00,CLR,SCT,0.00,WeatherDisplay:10.37,2013-05-19 23:19:00,
2013-05-19 15:24:00,45.1,17.7,30.12,NNW,338,8.1,8.1,33,0.00,CLR,SCT,0.00,WeatherDisplay:10.37,2013-05-19 23:24:00,
2013-05-19 15:29:00,44.6,17.9,30.12,NNW,338,9.2,9.2,34,0.00,CLR,SCT,0.00,WeatherDisplay:10.37,2013-05-19 23:29:00,
2013-05-19 15:34:00,45.1,18.4,30.12,NNW,338,8.1,8.1,34,0.00,CLR,SCT,0.00,WeatherDisplay:10.37,2013-05-19 23:34:00,
2013-05-19 15:39:00,46.0,19.2,30.12,NNW,338,8.1,8.1,34,0.00,CLR,SCT,0.00,WeatherDisplay:10.37,2013-05-19 23:39:00,
2013-05-19 15:44:00,46.2,19.4,30.12,NNW,338,10.5,10.5,34,0.00,CLR,SCT,0.00,WeatherDisplay:10.37,2013-05-19 23:44:00,
2013-05-19 15:49:00,45.5,18.7,30.15,NW,315,9.2,9.2,34,0.00,CLR,SCT,0.00,WeatherDisplay:10.37,2013-05-19 23:49:00,
2013-05-19 15:54:00,45.3,19.2,30.15,WNW,292,5.8,5.9,35,0.00,CLR,SCT,0.00,WeatherDisplay:10.37,2013-05-19 23:54:00,
2013-05-19 15:59:00,45.3,18.6,30.15,North,0,8.1,8.1,34,0.00,CLR,SCT,0.00,WeatherDisplay:10.37,2013-05-19 23:59:00,
2013-05-19 16:04:00,45.5,18.7,30.15,North,0,5.8,5.8,34,0.00,CLR,SCT,0.00,WeatherDisplay:10.37,2013-05-20 00:04:00,
2013-05-19 16:09:00,45.1,17.7,30.15,NNW,338,8.1,8.1,33,0.00,CLR,SCT,0.00,WeatherDisplay:10.37,2013-05-20 00:09:00,
2013-05-19 16:14:00,46.0,19.2,30.15,NW,315,8.1,8.1,34,0.00,CLR,SCT,0.00,WeatherDisplay:10.37,2013-05-20 00:14:00,
2013-05-19 16:19:00,44.4,17.1,30.15,NW,315,8.1,8.1,33,0.00,CLR,SCT,0.00,WeatherDisplay:10.37,2013-05-20 00:19:00,
2013-05-19 16:24:00,44.6,17.2,30.15,NNW,338,10.4,10.4,33,0.00,CLR,SCT,0.00,WeatherDisplay:10.37,2013-05-20 00:24:00,
2013-05-19 16:29:00,44.6,17.9,30.15,North,0,11.5,11.5,34,0.00,CLR,SCT,0.00,WeatherDisplay:10.37,2013-05-20 00:29:00,
2013-05-19 16:34:00,45.1,18.4,30.15,WNW,292,10.0,10.0,34,0.00,CLR,SCT,0.00,WeatherDisplay:10.37,2013-05-20 00:34:00,
2013-05-19 16:39:00,44.8,17.4,30.15,NNW,338,8.7,8.7,33,0.00,CLR,SCT,0.00,WeatherDisplay:10.37,2013-05-20 00:39:00,
2013-05-19 16:44:00,45.1,17.7,30.15,NNW,338,6.9,6.9,33,0.00,CLR,SCT,0.00,WeatherDisplay:10.37,2013-05-20 00:44:00,
2013-05-19 16:49:00,45.5,18.0,30.15,NNW,338,7.6,7.6,33,0.04,RA,SCT,0.04,WeatherDisplay:10.37,2013-05-20 00:49:00,
2013-05-19 16:54:00,44.6,16.5,30.15,NW,315,9.2,9.2,32,0.04,RA,SCT,0.04,WeatherDisplay:10.37,2013-05-20 00:54:00,
2013-05-19 16:59:00,44.4,16.4,30.15,NW,315,8.1,9.2,32,0.04,,SCT,0.04,WeatherDisplay:10.37,2013-05-20 00:59:00,
2013-05-19 17:04:00,44.8,16.7,30.15,NNW,338,7.1,7.1,32,0.04,CLR,SCT,0.04,WeatherDisplay:10.37,2013-05-20 01:04:00,
2013-05-19 17:09:00,45.3,17.9,30.15,North,0,5.9,5.9,33,0.04,CLR,SCT,0.04,WeatherDisplay:10.37,2013-05-20 01:09:00,
2013-05-19 17:14:00,45.5,17.3,30.15,NNW,338,5.8,5.8,32,0.04,CLR,SCT,0.04,WeatherDisplay:10.37,2013-05-20 01:14:00,
2013-05-19 17:19:00,44.8,16.7,30.15,NNW,338,8.1,8.1,32,0.04,CLR,SCT,0.04,WeatherDisplay:10.37,2013-05-20 01:19:00,
2013-05-19 17:24:00,44.6,17.2,30.15,NNE,22,5.8,5.8,33,0.04,CLR,SCT,0.04,WeatherDisplay:10.37,2013-05-20 01:24:00,
2013-05-19 17:29:00,45.1,17.7,30.15,NW,315,5.8,5.8,33,0.04,CLR,SCT,0.04,WeatherDisplay:10.37,2013-05-20 01:29:00,
2013-05-19 17:34:00,44.6,17.2,30.15,NW,315,9.2,9.2,33,0.04,CLR,SCT,0.04,WeatherDisplay:10.37,2013-05-20 01:34:00,
2013-05-19 17:39:00,44.4,17.1,30.15,North,0,6.9,6.9,33,0.04,CLR,SCT,0.04,WeatherDisplay:10.37,2013-05-20 01:39:00,
2013-05-19 17:44:00,45.1,17.7,30.15,NNW,338,9.2,9.2,33,0.04,CLR,SCT,0.04,WeatherDisplay:10.37,2013-05-20 01:44:00,
2013-05-19 17:49:00,44.4,17.1,30.15,NNW,338,9.2,9.2,33,0.00,CLR,SCT,0.04,WeatherDisplay:10.37,2013-05-20 01:49:00,
2013-05-19 17:54:00,44.8,17.4,30.15,NNW,338,5.8,5.8,33,0.00,CLR,SCT,0.04,WeatherDisplay:10.37,2013-05-20 01:54:00,
2013-05-19 17:59:00,45.3,17.1,30.15,NW,315,6.9,6.9,32,0.00,CLR,SCT,0.04,WeatherDisplay:10.37,2013-05-20 01:59:00,
2013-05-19 18:04:00,45.9,17.6,30.15,NNW,338,5.8,5.8,32,0.00,CLR,SCT,0.04,WeatherDisplay:10.37,2013-05-20 02:04:00,
2013-05-19 18:09:00,46.0,18.5,30.15,North,0,5.8,0.0,33,0.00,CLR,SCT,0.04,WeatherDisplay:10.37,2013-05-20 02:09:00,
2013-05-19 18:14:00,46.6,18.3,30.15,NW,315,5.8,5.8,32,0.00,CLR,SCT,0.04,WeatherDisplay:10.37,2013-05-20 02:14:00,
2013-05-19 18:19:00,46.8,19.1,30.15,North,0,4.6,4.6,33,0.00,CLR,SCT,0.04,WeatherDisplay:10.37,2013-05-20 02:19:00,
2013-05-19 18:24:00,46.6,18.3,30.15,North,0,5.8,5.8,32,0.00,CLR,SCT,0.04,WeatherDisplay:10.37,2013-05-20 02:24:00,
2013-05-19 18:29:00,45.5,17.3,30.15,NNW,338,8.1,8.1,32,0.00,CLR,SCT,0.04,WeatherDisplay:10.37,2013-05-20 02:29:00,
2013-05-19 18:34:00,45.9,18.3,30.15,NW,315,7.6,7.6,33,0.00,CLR,SCT,0.04,WeatherDisplay:10.37,2013-05-20 02:34:00,
2013-05-19 18:39:00,45.0,17.5,30.15,NNW,338,5.8,5.8,33,0.00,CLR,SCT,0.04,WeatherDisplay:10.37,2013-05-20 02:39:00,
2013-05-19 18:44:00,45.1,17.7,30.15,NNW,338,10.4,10.4,33,0.00,CLR,SCT,0.04,WeatherDisplay:10.37,2013-05-20 02:44:00,
2013-05-19 18:49:00,44.8,18.1,30.15,NW,315,10.0,10.0,34,0.00,CLR,SCT,0.04,WeatherDisplay:10.37,2013-05-20 02:49:00,
2013-05-19 18:54:00,44.2,17.6,30.15,NNW,338,10.4,10.4,34,0.00,CLR,SCT,0.04,WeatherDisplay:10.37,2013-05-20 02:54:00,
2013-05-19 18:59:00,44.6,17.9,30.15,NNW,338,7.1,7.1,34,0.00,CLR,SCT,0.04,WeatherDisplay:10.37,2013-05-20 02:59:00,
2013-05-19 19:04:00,45.3,18.6,30.15,WNW,292,5.9,5.9,34,0.00,CLR,SCT,0.04,WeatherDisplay:10.37,2013-05-20 03:04:00,
2013-05-19 19:09:00,45.5,18.7,30.15,NNW,338,4.6,4.6,34,0.00,CLR,SCT,0.04,WeatherDisplay:10.37,2013-05-20 03:09:00,
2013-05-19 19:14:00,45.1,18.4,30.15,NNW,338,6.9,6.9,34,0.00,CLR,SCT,0.04,WeatherDisplay:10.37,2013-05-20 03:14:00,
2013-05-19 19:19:00,45.9,19.0,30.18,NW,315,6.2,6.2,34,0.00,CLR,SCT,0.04,WeatherDisplay:10.37,2013-05-20 03:19:00,
2013-05-19 19:25:00,45.1,17.7,30.18,NNW,338,8.1,8.1,33,0.00,CLR,SCT,0.04,WeatherDisplay:10.37,2013-05-20 03:25:00,
2013-05-19 19:29:00,45.3,17.9,30.18,NNW,338,9.2,9.2,33,0.00,CLR,SCT,0.04,WeatherDisplay:10.37,2013-05-20 03:29:00,
2013-05-19 19:34:00,44.8,17.4,30.18,NW,315,9.2,9.2,33,0.00,CLR,SCT,0.04,WeatherDisplay:10.37,2013-05-20 03:34:00,
2013-05-19 19:39:00,44.6,17.9,30.18,NNW,338,8.1,8.1,34,0.00,CLR,SCT,0.04,WeatherDisplay:10.37,2013-05-20 03:39:00,
2013-05-19 19:44:00,45.0,18.2,30.18,NNW,338,6.2,6.2,34,0.00,CLR,SCT,0.04,WeatherDisplay:10.37,2013-05-20 03:44:00,
2013-05-19 19:50:00,44.6,17.2,30.18,North,0,8.1,8.1,33,0.00,CLR,SCT,0.04,WeatherDisplay:10.37,2013-05-20 03:50:00,
2013-05-19 19:55:00,44.6,17.9,30.18,NNW,338,5.8,5.8,34,0.00,CLR,SCT,0.04,WeatherDisplay:10.37,2013-05-20 03:55:00,
2013-05-19 20:00:00,44.8,18.1,30.18,NNW,338,4.6,4.6,34,0.00,CLR,SCT,0.04,WeatherDisplay:10.37,2013-05-20 04:00:00,
2013-05-19 20:01:00,44.8,18.1,30.18,NNW,338,8.1,8.1,34,0.00,CLR,SCT,0.04,WeatherDisplay:10.37,2013-05-20 04:01:00,
2013-05-19 20:06:00,44.4,17.8,30.18,NW,315,8.1,8.1,34,0.00,CLR,SCT,0.04,WeatherDisplay:10.37,2013-05-20 04:06:00,
2013-05-19 20:11:00,44.6,17.9,30.18,NNW,338,4.6,4.6,34,0.00,CLR,SCT,0.04,WeatherDisplay:10.37,2013-05-20 04:11:00,
2013-05-19 20:16:00,45.1,18.4,30.18,NNW,338,5.8,5.8,34,0.00,CLR,SCT,0.04,WeatherDisplay:10.37,2013-05-20 04:16:00,
2013-05-19 20:21:00,45.3,18.6,30.18,NNW,338,5.8,5.8,34,0.00,CLR,SCT,0.04,WeatherDisplay:10.37,2013-05-20 04:21:00,
2013-05-19 20:26:00,45.1,18.4,30.18,NNW,338,6.9,6.9,34,0.00,CLR,SCT,0.04,WeatherDisplay:10.37,2013-05-20 04:26:00,
2013-05-19 20:31:00,44.8,18.1,30.18,NW,315,6.9,6.9,34,0.00,CLR,SCT,0.04,WeatherDisplay:10.37,2013-05-20 04:31:00,
2013-05-19 20:36:00,44.8,18.8,30.18,NNW,338,4.6,4.6,35,0.00,CLR,SCT,0.04,WeatherDisplay:10.37,2013-05-20 04:36:00,
2013-05-19 20:41:00,44.6,18.6,30.18,NNW,338,5.8,5.8,35,0.00,CLR,SCT,0.04,WeatherDisplay:10.37,2013-05-20 04:41:00,
2013-05-19 20:46:00,45.1,19.1,30.18,NNW,338,3.6,3.6,35,0.00,CLR,SCT,0.04,WeatherDisplay:10.37,2013-05-20 04:46:00,
2013-05-19 20:51:00,45.3,18.6,30.18,NNW,338,6.9,6.9,34,0.00,CLR,SCT,0.04,WeatherDisplay:10.37,2013-05-20 04:51:00,
2013-05-19 20:56:00,44.8,18.8,30.18,NW,315,4.9,4.9,35,0.00,CLR,SCT,0.04,WeatherDisplay:10.37,2013-05-20 04:56:00,
2013-05-19 21:01:00,44.6,18.6,30.18,NNW,338,3.5,3.5,35,0.00,CLR,SCT,0.04,WeatherDisplay:10.37,2013-05-20 05:01:00,
2013-05-19 21:06:00,44.2,18.3,30.18,NW,315,6.2,6.2,35,0.00,CLR,SCT,0.04,WeatherDisplay:10.37,2013-05-20 05:06:00,
2013-05-19 21:11:00,43.9,18.0,30.18,NNW,338,3.6,3.6,35,0.00,CLR,SCT,0.04,WeatherDisplay:10.37,2013-05-20 05:11:00,
2013-05-19 21:16:00,43.5,17.6,30.18,NNW,338,4.6,4.6,35,0.00,CLR,SCT,0.04,WeatherDisplay:10.37,2013-05-20 05:16:00,
2013-05-19 21:21:00,43.2,17.3,30.18,NW,315,3.5,3.5,35,0.00,CLR,SCT,0.04,WeatherDisplay:10.37,2013-05-20 05:21:00,
2013-05-19 21:26:00,42.8,17.0,30.18,NNW,338,5.8,5.8,35,0.00,CLR,SCT,0.04,WeatherDisplay:10.37,2013-05-20 05:26:00,
2013-05-19 21:31:00,42.8,17.0,30.18,NNW,338,3.5,3.5,35,0.00,CLR,SCT,0.04,WeatherDisplay:10.37,2013-05-20 05:31:00,
2013-05-19 21:36:00,42.6,17.5,30.18,NW,315,2.6,0.0,36,0.00,CLR,SCT,0.04,WeatherDisplay:10.37,2013-05-20 05:36:00,
2013-05-19 21:41:00,42.3,17.2,30.18,NW,315,3.5,3.5,36,0.00,CLR,SCT,0.04,WeatherDisplay:10.37,2013-05-20 05:41:00,
2013-05-19 21:46:00,42.1,17.0,30.18,NW,315,3.6,3.6,36,0.00,CLR,SCT,0.04,WeatherDisplay:10.37,2013-05-20 05:46:00,
2013-05-19 21:51:00,42.1,17.0,30.18,NW,315,3.5,3.5,36,0.00,CLR,SCT,0.04,WeatherDisplay:10.37,2013-05-20 05:51:00,
2013-05-19 21:56:00,41.9,16.9,30.18,NW,315,2.6,0.0,36,0.00,CLR,SCT,0.04,WeatherDisplay:10.37,2013-05-20 05:56:00,
2013-05-19 22:01:00,41.9,16.9,30.18,NW,315,0.0,0.0,36,0.00,CLR,SCT,0.04,WeatherDisplay:10.37,2013-05-20 06:01:00,
2013-05-19 22:06:00,41.5,16.5,30.18,NW,315,0.0,0.0,36,0.00,CLR,SCT,0.04,WeatherDisplay:10.37,2013-05-20 06:06:00,
2013-05-19 22:11:00,41.2,16.8,30.18,NW,315,0.0,0.0,37,0.00,CLR,SCT,0.04,WeatherDisplay:10.37,2013-05-20 06:11:00,
2013-05-19 22:16:00,40.8,17.1,30.18,NW,315,0.0,0.0,38,0.00,CLR,SCT,0.04,WeatherDisplay:10.37,2013-05-20 06:16:00,
2013-05-19 22:21:00,40.3,16.7,30.18,NW,315,0.0,0.0,38,0.00,CLR,SCT,0.04,WeatherDisplay:10.37,2013-05-20 06:21:00,
2013-05-19 22:26:00,39.9,16.9,30.18,NW,315,0.0,0.0,39,0.00,CLR,SCT,0.04,WeatherDisplay:10.37,2013-05-20 06:26:00,
2013-05-19 22:31:00,39.4,16.4,30.18,NW,315,0.0,0.0,39,0.00,CLR,SCT,0.04,WeatherDisplay:10.37,2013-05-20 06:31:00,
2013-05-19 22:36:00,38.8,16.0,30.18,NW,315,0.0,0.0,39,0.00,CLR,SCT,0.04,WeatherDisplay:10.37,2013-05-20 06:36:00,
2013-05-19 22:41:00,38.7,16.4,30.18,NW,315,0.0,0.0,40,0.00,CLR,SCT,0.04,WeatherDisplay:10.37,2013-05-20 06:41:00,
2013-05-19 22:46:00,38.5,16.2,30.18,NW,315,0.0,0.0,40,0.00,CLR,SCT,0.04,WeatherDisplay:10.37,2013-05-20 06:46:00,
2013-05-19 22:51:00,38.1,15.9,30.21,NW,315,0.0,0.0,40,0.00,CLR,SCT,0.04,WeatherDisplay:10.37,2013-05-20 06:51:00,
2013-05-19 22:56:00,37.9,16.3,30.21,NW,315,0.0,0.0,41,0.00,CLR,SCT,0.04,WeatherDisplay:10.37,2013-05-20 06:56:00,
2013-05-19 23:01:00,37.6,16.0,30.21,NW,315,0.0,0.0,41,0.00,CLR,SCT,0.04,WeatherDisplay:10.37,2013-05-20 07:01:00,
2013-05-19 23:06:00,37.0,16.0,30.18,NW,315,0.0,0.0,42,0.00,CLR,SCT,0.04,WeatherDisplay:10.37,2013-05-20 07:06:00,
2013-05-19 23:11:00,36.3,15.4,30.18,NW,315,0.0,0.0,42,0.00,CLR,SCT,0.04,WeatherDisplay:10.37,2013-05-20 07:11:00,
2013-05-19 23:16:00,36.7,16.8,30.18,NW,315,0.0,0.0,44,0.00,CLR,SCT,0.04,WeatherDisplay:10.37,2013-05-20 07:16:00,
2013-05-19 23:21:00,37.0,17.1,30.18,NW,315,0.0,0.0,44,0.00,CLR,SCT,0.04,WeatherDisplay:10.37,2013-05-20 07:21:00,
2013-05-19 23:26:00,37.0,17.6,30.18,NW,315,0.0,0.0,45,0.00,CLR,SCT,0.04,WeatherDisplay:10.37,2013-05-20 07:26:00,
2013-05-19 23:31:00,37.0,18.1,30.18,NW,315,0.0,0.0,46,0.00,CLR,SCT,0.04,WeatherDisplay:10.37,2013-05-20 07:31:00,
2013-05-19 23:36:00,36.9,18.5,30.21,NW,315,0.0,0.0,47,0.00,CLR,SCT,0.04,WeatherDisplay:10.37,2013-05-20 07:36:00,
2013-05-19 23:41:00,36.7,18.8,30.21,NW,315,0.0,0.0,48,0.00,CLR,SCT,0.04,WeatherDisplay:10.37,2013-05-20 07:41:00,
2013-05-19 23:46:00,36.3,19.4,30.21,NW,315,0.0,0.0,50,0.00,CLR,SCT,0.04,WeatherDisplay:10.37,2013-05-20 07:46:00,
2013-05-19 23:51:00,35.8,18.9,30.18,NW,315,0.0,0.0,50,0.00,CLR,SCT,0.04,WeatherDisplay:10.37,2013-05-20 07:51:00,
2013-05-19 23:56:00,35.1,18.7,30.18,NW,315,0.0,0.0,51,0.00,CLR,SCT,0.04,WeatherDisplay:10.37,2013-05-20 07:56:00,